Time,TemperatureF,DewpointF,PressureIn,WindDirection,WindDirectionDegrees,WindSpeedMPH,WindSpeedGustMPH,Humidity,HourlyPrecipIn,Conditions,Clouds,dailyrainin,SoftwareType,DateUTC
2013-04-19 00:00:00,35.9,8.9,30.80,NNE,23,2.0,2.0,32,0.00,,,0.00,Wunderground v.1.15,2013-04-19 07:00:00,
2013-04-19 00:10:00,35.9,8.9,30.80,NNE,19,1.0,1.0,32,0.00,,,0.00,Wunderground v.1.15,2013-04-19 07:10:00,
2013-04-19 00:20:00,35.0,8.7,30.80,NE,47,2.0,2.0,33,0.00,,,0.00,Wunderground v.1.15,2013-04-19 07:20:00,
2013-04-19 00:25:00,34.8,8.6,30.80,NNE,27,2.0,2.0,33,0.00,,,0.00,Wunderground v.1.15,2013-04-19 07:25:00,
2013-04-19 00:35:00,34.4,8.2,30.80,NE,39,2.0,2.0,33,0.00,,,0.00,Wunderground v.1.15,2013-04-19 07:35:00,
2013-04-19 00:40:00,34.4,8.2,30.80,NE,49,2.0,2.0,33,0.00,,,0.00,Wunderground v.1.15,2013-04-19 07:40:00,
2013-04-19 00:50:00,34.1,8.0,30.80,North,4,2.0,2.0,33,0.00,,,0.00,Wunderground v.1.15,2013-04-19 07:50:00,
2013-04-19 00:55:00,34.3,7.4,30.80,ENE,58,2.0,2.0,32,0.00,,,0.00,Wunderground v.1.15,2013-04-19 07:55:00,
2013-04-19 01:05:00,34.3,6.7,30.79,NE,56,2.0,3.0,31,0.00,,,0.00,Wunderground v.1.15,2013-04-19 08:05:00,
2013-04-19 01:10:00,34.1,6.6,30.79,North,349,2.0,3.0,31,0.00,,,0.00,Wunderground v.1.15,2013-04-19 08:10:00,
2013-04-19 01:20:00,33.6,6.8,30.80,NE,53,2.0,2.0,32,0.00,,,0.00,Wunderground v.1.15,2013-04-19 08:20:00,
2013-04-19 01:25:00,33.2,6.5,30.80,NE,41,2.0,2.0,32,0.00,,,0.00,Wunderground v.1.15,2013-04-19 08:25:00,
2013-04-19 01:35:00,33.2,6.5,30.79,North,8,2.0,4.0,32,0.00,,,0.00,Wunderground v.1.15,2013-04-19 08:35:00,
2013-04-19 01:40:00,33.4,7.3,30.79,NNE,24,3.0,3.0,33,0.00,,,0.00,Wunderground v.1.15,2013-04-19 08:40:00,
2013-04-19 01:50:00,33.0,7.0,30.78,ENE,64,3.0,3.0,33,0.00,,,0.00,Wunderground v.1.15,2013-04-19 08:50:00,
2013-04-19 01:55:00,32.8,7.5,30.78,NE,39,3.0,3.0,34,0.00,,,0.00,Wunderground v.1.15,2013-04-19 08:55:00,
2013-04-19 02:05:00,32.5,7.2,30.78,NNE,18,3.0,3.0,34,0.00,,,0.00,Wunderground v.1.15,2013-04-19 09:05:00,
2013-04-19 02:10:00,32.4,7.7,30.78,North,6,3.0,5.0,35,0.00,,,0.00,Wunderground v.1.15,2013-04-19 09:10:00,
2013-04-19 02:20:00,32.7,8.0,30.79,NE,39,3.0,3.0,35,0.00,,,0.00,Wunderground v.1.15,2013-04-19 09:20:00,
2013-04-19 02:25:00,32.8,7.5,30.79,NE,34,3.0,3.0,34,0.00,,,0.00,Wunderground v.1.15,2013-04-19 09:25:00,
2013-04-19 02:35:00,32.7,8.0,30.78,NNE,23,4.0,4.0,35,0.00,,,0.00,Wunderground v.1.15,2013-04-19 09:35:00,
2013-04-19 02:40:00,32.8,8.1,30.78,NNE,23,3.0,3.0,35,0.00,,,0.00,Wunderground v.1.15,2013-04-19 09:40:00,
2013-04-19 02:50:00,32.7,8.0,30.78,North,8,2.0,3.0,35,0.00,,,0.00,Wunderground v.1.15,2013-04-19 09:50:00,
2013-04-19 02:55:00,32.5,7.8,30.78,NE,41,2.0,3.0,35,0.00,,,0.00,Wunderground v.1.15,2013-04-19 09:55:00,
2013-04-19 03:05:00,32.0,7.4,30.78,NNE,25,2.0,3.0,35,0.00,,,0.00,Wunderground v.1.15,2013-04-19 10:05:00,
2013-04-19 03:10:00,31.7,7.1,30.78,North,360,1.0,3.0,35,0.00,,,0.00,Wunderground v.1.15,2013-04-19 10:10:00,
2013-04-19 03:20:00,31.6,7.7,30.79,North,354,2.0,2.0,36,0.00,,,0.00,Wunderground v.1.15,2013-04-19 10:20:00,
2013-04-19 03:25:00,31.8,7.8,30.79,NNW,335,2.0,3.0,36,0.00,,,0.00,Wunderground v.1.15,2013-04-19 10:25:00,
2013-04-19 03:35:00,32.6,7.9,30.79,NNE,29,3.0,4.0,35,0.00,,,0.00,Wunderground v.1.15,2013-04-19 10:35:00,
2013-04-19 03:40:00,32.8,8.1,30.78,North,6,3.0,3.0,35,0.00,,,0.00,Wunderground v.1.15,2013-04-19 10:40:00,
2013-04-19 03:50:00,32.3,7.7,30.78,NW,304,2.0,2.0,35,0.00,,,0.00,Wunderground v.1.15,2013-04-19 10:50:00,
2013-04-19 03:55:00,31.6,7.7,30.78,NNE,25,1.0,2.0,36,0.00,,,0.00,Wunderground v.1.15,2013-04-19 10:55:00,
2013-04-19 04:05:00,31.6,7.7,30.78,North,350,1.0,2.0,36,0.00,,,0.00,Wunderground v.1.15,2013-04-19 11:05:00,
2013-04-19 04:10:00,31.3,7.4,30.78,NW,308,1.0,2.0,36,0.00,,,0.00,Wunderground v.1.15,2013-04-19 11:10:00,
2013-04-19 04:20:00,30.5,7.9,30.78,NNW,348,2.0,5.0,38,0.00,,,0.00,Wunderground v.1.15,2013-04-19 11:20:00,
2013-04-19 04:25:00,30.1,7.5,30.78,North,358,3.0,5.0,38,0.00,,,0.00,Wunderground v.1.15,2013-04-19 11:25:00,
2013-04-19 04:35:00,30.0,7.4,30.78,NW,326,3.0,4.0,38,0.00,,,0.00,Wunderground v.1.15,2013-04-19 11:35:00,
2013-04-19 04:40:00,29.9,7.3,30.79,NW,316,3.0,3.0,38,0.00,,,0.00,Wunderground v.1.15,2013-04-19 11:40:00,
2013-04-19 04:50:00,29.8,7.2,30.78,NNW,335,3.0,3.0,38,0.00,,,0.00,Wunderground v.1.15,2013-04-19 11:50:00,
2013-04-19 04:55:00,29.8,7.2,30.79,NNW,337,3.0,3.0,38,0.00,,,0.00,Wunderground v.1.15,2013-04-19 11:55:00,
2013-04-19 05:05:00,29.6,7.1,30.78,NW,320,3.0,3.0,38,0.00,,,0.00,Wunderground v.1.15,2013-04-19 12:05:00,
2013-04-19 05:10:00,29.6,7.1,30.78,NNW,344,3.0,3.0,38,0.00,,,0.00,Wunderground v.1.15,2013-04-19 12:10:00,
2013-04-19 05:20:00,29.4,6.9,30.80,WNW,301,5.0,5.0,38,0.00,,,0.00,Wunderground v.1.15,2013-04-19 12:20:00,
2013-04-19 05:25:00,28.6,6.7,30.81,NNE,13,3.0,5.0,39,0.00,,,0.00,Wunderground v.1.15,2013-04-19 12:25:00,
2013-04-19 05:35:00,28.5,7.2,30.80,North,6,3.0,4.0,40,0.00,,,0.00,Wunderground v.1.15,2013-04-19 12:35:00,
2013-04-19 05:40:00,28.6,7.3,30.80,NNE,12,4.0,7.0,40,0.00,,,0.00,Wunderground v.1.15,2013-04-19 12:40:00,
2013-04-19 05:50:00,28.4,6.6,30.80,NNE,18,4.0,4.0,39,0.00,,,0.00,Wunderground v.1.15,2013-04-19 12:50:00,
2013-04-19 05:55:00,28.2,6.4,30.81,NNW,343,3.0,4.0,39,0.00,,,0.00,Wunderground v.1.15,2013-04-19 12:55:00,
2013-04-19 06:05:00,28.1,6.3,30.81,NNW,335,3.0,3.0,39,0.00,,,0.00,Wunderground v.1.15,2013-04-19 13:05:00,
2013-04-19 06:10:00,28.3,5.9,30.81,North,356,3.0,4.0,38,0.00,,,0.00,Wunderground v.1.15,2013-04-19 13:10:00,
2013-04-19 06:20:00,29.2,5.5,30.81,NNE,27,4.0,6.0,36,0.00,,,0.00,Wunderground v.1.15,2013-04-19 13:20:00,
2013-04-19 06:25:00,29.5,5.2,30.81,NNW,331,4.0,6.0,35,0.00,,,0.00,Wunderground v.1.15,2013-04-19 13:25:00,
2013-04-19 06:35:00,29.8,5.4,30.81,NNW,345,3.0,4.0,35,0.00,,,0.00,Wunderground v.1.15,2013-04-19 13:35:00,
2013-04-19 06:40:00,30.1,5.1,30.81,NNW,345,3.0,3.0,34,0.00,,,0.00,Wunderground v.1.15,2013-04-19 13:40:00,
2013-04-19 06:50:00,31.0,5.9,30.81,North,355,3.0,4.0,34,0.00,,,0.00,Wunderground v.1.15,2013-04-19 13:50:00,
2013-04-19 06:55:00,31.6,5.7,30.80,North,356,3.0,5.0,33,0.00,,,0.00,Wunderground v.1.15,2013-04-19 13:55:00,
2013-04-19 07:05:00,32.7,6.0,30.80,NW,319,3.0,3.0,32,0.00,,,0.00,Wunderground v.1.15,2013-04-19 14:05:00,
2013-04-19 07:10:00,33.2,5.8,30.80,NW,309,3.0,6.0,31,0.00,,,0.00,Wunderground v.1.15,2013-04-19 14:10:00,
2013-04-19 07:20:00,34.2,5.9,30.80,North,358,3.0,3.0,30,0.00,,,0.00,Wunderground v.1.15,2013-04-19 14:20:00,
2013-04-19 07:25:00,34.9,5.8,30.79,NW,316,3.0,3.0,29,0.00,,,0.00,Wunderground v.1.15,2013-04-19 14:25:00,
2013-04-19 07:35:00,36.4,6.3,30.79,NNE,20,3.0,4.0,28,0.00,,,0.00,Wunderground v.1.15,2013-04-19 14:35:00,
2013-04-19 07:40:00,37.3,7.1,30.79,NW,324,3.0,3.0,28,0.00,,,0.00,Wunderground v.1.15,2013-04-19 14:40:00,
2013-04-19 07:50:00,39.0,7.0,30.79,NNW,330,2.0,3.0,26,0.00,,,0.00,Wunderground v.1.15,2013-04-19 14:50:00,
2013-04-19 07:55:00,39.7,7.6,30.79,NNE,26,2.0,3.0,26,0.00,,,0.00,Wunderground v.1.15,2013-04-19 14:55:00,
2013-04-19 08:05:00,41.6,8.3,30.79,NW,321,2.0,2.0,25,0.00,,,0.00,Wunderground v.1.15,2013-04-19 15:05:00,
2013-04-19 08:10:00,42.4,7.2,30.79,NNE,25,2.0,4.0,23,0.00,,,0.00,Wunderground v.1.15,2013-04-19 15:10:00,
2013-04-19 08:20:00,43.4,8.0,30.78,NNW,346,2.0,2.0,23,0.00,,,0.00,Wunderground v.1.15,2013-04-19 15:20:00,
2013-04-19 08:25:00,44.1,7.6,30.78,West,266,1.0,2.0,22,0.00,,,0.00,Wunderground v.1.15,2013-04-19 15:25:00,
2013-04-19 08:35:00,45.6,7.8,30.78,NNE,27,1.0,1.0,21,0.00,,,0.00,Wunderground v.1.15,2013-04-19 15:35:00,
2013-04-19 08:40:00,46.5,8.6,30.78,NNE,32,1.0,1.0,21,0.00,,,0.00,Wunderground v.1.15,2013-04-19 15:40:00,
2013-04-19 08:50:00,48.0,8.8,30.78,WNW,302,1.0,1.0,20,0.00,,,0.00,Wunderground v.1.15,2013-04-19 15:50:00,
2013-04-19 08:55:00,49.2,9.8,30.78,NNW,337,1.0,3.0,20,0.00,,,0.00,Wunderground v.1.15,2013-04-19 15:55:00,
2013-04-19 09:05:00,50.5,9.7,30.77,North,354,1.0,1.0,19,0.00,,,0.00,Wunderground v.1.15,2013-04-19 16:05:00,
2013-04-19 09:10:00,50.9,10.0,30.77,WNW,283,1.0,1.0,19,0.00,,,0.00,Wunderground v.1.15,2013-04-19 16:10:00,
2013-04-19 09:20:00,51.8,8.3,30.77,NW,326,1.0,1.0,17,0.00,,,0.00,Wunderground v.1.15,2013-04-19 16:20:00,
2013-04-19 09:25:00,52.0,8.5,30.76,SE,129,1.0,1.0,17,0.00,,,0.00,Wunderground v.1.15,2013-04-19 16:25:00,
2013-04-19 09:35:00,53.6,9.8,30.77,ENE,74,1.0,2.0,17,0.00,,,0.00,Wunderground v.1.15,2013-04-19 16:35:00,
2013-04-19 09:40:00,54.0,8.7,30.76,East,94,1.0,1.0,16,0.00,,,0.00,Wunderground v.1.15,2013-04-19 16:40:00,
2013-04-19 09:50:00,54.7,9.3,30.77,SSW,207,2.0,2.0,16,0.00,,,0.00,Wunderground v.1.15,2013-04-19 16:50:00,
2013-04-19 09:55:00,55.3,8.4,30.77,SE,129,2.0,2.0,15,0.00,,,0.00,Wunderground v.1.15,2013-04-19 16:55:00,
2013-04-19 10:05:00,56.0,8.9,30.76,West,271,2.0,4.0,15,0.00,,,0.00,Wunderground v.1.15,2013-04-19 17:05:00,
2013-04-19 10:10:00,56.3,10.6,30.76,NNW,332,2.0,3.0,16,0.00,,,0.00,Wunderground v.1.15,2013-04-19 17:10:00,
2013-04-19 10:20:00,56.3,7.6,30.75,NE,39,2.0,2.0,14,0.00,,,0.00,Wunderground v.1.15,2013-04-19 17:20:00,
2013-04-19 10:25:00,57.1,9.8,30.75,WNW,297,1.0,4.0,15,0.00,,,0.00,Wunderground v.1.15,2013-04-19 17:25:00,
2013-04-19 10:35:00,57.3,6.8,30.75,ESE,115,2.0,2.0,13,0.00,,,0.00,Wunderground v.1.15,2013-04-19 17:35:00,
2013-04-19 10:40:00,57.5,8.6,30.75,SE,126,2.0,3.0,14,0.00,,,0.00,Wunderground v.1.15,2013-04-19 17:40:00,
2013-04-19 10:50:00,58.8,8.0,30.74,SSW,193,3.0,5.0,13,0.00,,,0.00,Wunderground v.1.15,2013-04-19 17:50:00,
2013-04-19 10:55:00,59.4,8.5,30.74,South,191,3.0,5.0,13,0.00,,,0.00,Wunderground v.1.15,2013-04-19 17:55:00,
2013-04-19 11:05:00,59.4,6.7,30.73,North,354,3.0,4.0,12,0.00,,,0.00,Wunderground v.1.15,2013-04-19 18:05:00,
2013-04-19 11:10:00,59.9,7.1,30.73,West,277,4.0,4.0,12,0.00,,,0.00,Wunderground v.1.15,2013-04-19 18:10:00,
2013-04-19 11:20:00,59.8,5.1,30.72,NW,311,2.0,2.0,11,0.00,,,0.00,Wunderground v.1.15,2013-04-19 18:20:00,
2013-04-19 11:25:00,59.9,5.2,30.72,ESE,114,2.0,2.0,11,0.00,,,0.00,Wunderground v.1.15,2013-04-19 18:25:00,
2013-04-19 11:35:00,61.1,8.0,30.71,WNW,302,2.0,6.0,12,0.00,,,0.00,Wunderground v.1.15,2013-04-19 18:35:00,
2013-04-19 11:40:00,61.2,8.1,30.71,West,281,4.0,5.0,12,0.00,,,0.00,Wunderground v.1.15,2013-04-19 18:40:00,
2013-04-19 11:50:00,62.6,7.3,30.70,NW,314,3.0,4.0,11,0.00,,,0.00,Wunderground v.1.15,2013-04-19 18:50:00,
2013-04-19 11:55:00,62.5,7.2,30.70,NW,322,3.0,4.0,11,0.00,,,0.00,Wunderground v.1.15,2013-04-19 18:55:00,
2013-04-19 12:05:00,63.4,7.9,30.69,West,278,2.0,3.0,11,0.00,,,0.00,Wunderground v.1.15,2013-04-19 19:05:00,
2013-04-19 12:10:00,64.1,8.4,30.69,NW,316,2.0,3.0,11,0.00,,,0.00,Wunderground v.1.15,2013-04-19 19:10:00,
2013-04-19 12:20:00,63.4,5.8,30.68,East,86,4.0,4.0,10,0.00,,,0.00,Wunderground v.1.15,2013-04-19 19:20:00,
2013-04-19 12:25:00,63.5,5.9,30.68,NNE,25,3.0,4.0,10,0.00,,,0.00,Wunderground v.1.15,2013-04-19 19:25:00,
2013-04-19 12:35:00,64.2,4.1,30.67,NNW,343,4.0,7.0,9,0.00,,,0.00,Wunderground v.1.15,2013-04-19 19:35:00,
2013-04-19 12:40:00,63.5,5.9,30.67,West,280,4.0,4.0,10,0.00,,,0.00,Wunderground v.1.15,2013-04-19 19:40:00,
2013-04-19 12:50:00,64.3,4.2,30.67,NW,309,4.0,4.0,9,0.00,,,0.00,Wunderground v.1.15,2013-04-19 19:50:00,
2013-04-19 12:55:00,64.6,6.7,30.66,WNW,298,4.0,6.0,10,0.00,,,0.00,Wunderground v.1.15,2013-04-19 19:55:00,
2013-04-19 13:05:00,65.4,5.0,30.66,SW,236,4.0,5.0,9,0.00,,,0.00,Wunderground v.1.15,2013-04-19 20:05:00,
2013-04-19 13:10:00,65.5,5.1,30.65,West,281,3.0,3.0,9,0.00,,,0.00,Wunderground v.1.15,2013-04-19 20:10:00,
2013-04-19 13:20:00,66.5,8.2,30.65,WSW,257,2.0,3.0,10,0.00,,,0.00,Wunderground v.1.15,2013-04-19 20:20:00,
2013-04-19 13:25:00,66.0,5.5,30.65,West,277,3.0,6.0,9,0.00,,,0.00,Wunderground v.1.15,2013-04-19 20:25:00,
2013-04-19 13:35:00,65.6,5.2,30.64,NW,307,6.0,7.0,9,0.00,,,0.00,Wunderground v.1.15,2013-04-19 20:35:00,
2013-04-19 13:40:00,66.1,7.9,30.63,SW,214,4.0,4.0,10,0.00,,,0.00,Wunderground v.1.15,2013-04-19 20:40:00,
2013-04-19 13:50:00,66.3,8.0,30.62,WNW,294,3.0,3.0,10,0.00,,,0.00,Wunderground v.1.15,2013-04-19 20:50:00,
2013-04-19 13:55:00,66.9,8.5,30.62,SW,225,3.0,6.0,10,0.00,,,0.00,Wunderground v.1.15,2013-04-19 20:55:00,
2013-04-19 14:05:00,66.8,6.1,30.62,WNW,293,4.0,8.0,9,0.00,,,0.00,Wunderground v.1.15,2013-04-19 21:05:00,
2013-04-19 14:10:00,66.6,5.9,30.61,WNW,296,6.0,6.0,9,0.00,,,0.00,Wunderground v.1.15,2013-04-19 21:10:00,
2013-04-19 14:20:00,67.7,6.7,30.61,ENE,77,2.0,2.0,9,0.00,,,0.00,Wunderground v.1.15,2013-04-19 21:20:00,
2013-04-19 14:25:00,67.9,4.3,30.60,SE,124,2.0,2.0,8,0.00,,,0.00,Wunderground v.1.15,2013-04-19 21:25:00,
2013-04-19 14:35:00,68.5,7.4,30.59,WNW,302,6.0,9.0,9,0.00,,,0.00,Wunderground v.1.15,2013-04-19 21:35:00,
2013-04-19 14:40:00,67.5,6.6,30.59,NW,316,7.0,14.0,9,0.00,,,0.00,Wunderground v.1.15,2013-04-19 21:40:00,
2013-04-19 14:50:00,68.5,4.8,30.58,WNW,295,6.0,8.0,8,0.00,,,0.00,Wunderground v.1.15,2013-04-19 21:50:00,
2013-04-19 14:55:00,67.9,4.3,30.58,WNW,283,5.0,8.0,8,0.00,,,0.00,Wunderground v.1.15,2013-04-19 21:55:00,
2013-04-19 15:05:00,66.9,3.6,30.57,WNW,297,6.0,6.0,8,0.00,,,0.00,Wunderground v.1.15,2013-04-19 22:05:00,
2013-04-19 15:10:00,67.0,6.2,30.57,WNW,296,6.0,9.0,9,0.00,,,0.00,Wunderground v.1.15,2013-04-19 22:10:00,
2013-04-19 15:20:00,66.4,5.8,30.56,NW,319,6.0,8.0,9,0.00,,,0.00,Wunderground v.1.15,2013-04-19 22:20:00,
2013-04-19 15:25:00,66.3,5.7,30.56,WNW,295,6.0,8.0,9,0.00,,,0.00,Wunderground v.1.15,2013-04-19 22:25:00,
2013-04-19 15:35:00,66.0,5.5,30.55,NW,326,4.0,6.0,9,0.00,,,0.00,Wunderground v.1.15,2013-04-19 22:35:00,
2013-04-19 15:40:00,66.6,8.2,30.54,NW,305,5.0,5.0,10,0.00,,,0.00,Wunderground v.1.15,2013-04-19 22:40:00,
2013-04-19 15:50:00,66.7,6.0,30.54,West,276,5.0,5.0,9,0.00,,,0.00,Wunderground v.1.15,2013-04-19 22:50:00,
2013-04-19 15:55:00,67.6,9.0,30.54,WNW,301,5.0,8.0,10,0.00,,,0.00,Wunderground v.1.15,2013-04-19 22:55:00,
2013-04-19 16:05:00,68.2,4.5,30.54,North,358,9.0,11.0,8,0.00,,,0.00,Wunderground v.1.15,2013-04-19 23:05:00,
2013-04-19 16:10:00,68.3,4.6,30.53,NW,305,8.0,8.0,8,0.00,,,0.00,Wunderground v.1.15,2013-04-19 23:10:00,
2013-04-19 16:20:00,68.1,4.5,30.53,WNW,298,8.0,9.0,8,0.00,,,0.00,Wunderground v.1.15,2013-04-19 23:20:00,
2013-04-19 16:25:00,67.6,4.1,30.52,NW,321,8.0,9.0,8,0.00,,,0.00,Wunderground v.1.15,2013-04-19 23:25:00,
2013-04-19 16:35:00,67.9,4.3,30.52,NNE,29,6.0,7.0,8,0.00,,,0.00,Wunderground v.1.15,2013-04-19 23:35:00,
2013-04-19 16:40:00,67.7,4.2,30.52,NW,309,7.0,10.0,8,0.00,,,0.00,Wunderground v.1.15,2013-04-19 23:40:00,
2013-04-19 16:50:00,67.3,3.9,30.52,NW,308,6.0,6.0,8,0.00,,,0.00,Wunderground v.1.15,2013-04-19 23:50:00,
2013-04-19 16:55:00,67.5,4.0,30.52,WNW,297,6.0,9.0,8,0.00,,,0.00,Wunderground v.1.15,2013-04-19 23:55:00,
2013-04-19 17:05:00,67.5,6.6,30.52,NW,311,6.0,10.0,9,0.00,,,0.00,Wunderground v.1.15,2013-04-20 00:05:00,
2013-04-19 17:10:00,67.3,3.9,30.51,NW,326,6.0,10.0,8,0.00,,,0.00,Wunderground v.1.15,2013-04-20 00:10:00,
2013-04-19 17:20:00,67.2,6.4,30.51,NNW,329,6.0,6.0,9,0.00,,,0.00,Wunderground v.1.15,2013-04-20 00:20:00,
2013-04-19 17:25:00,66.2,5.6,30.51,NNW,328,7.0,7.0,9,0.00,,,0.00,Wunderground v.1.15,2013-04-20 00:25:00,
2013-04-19 17:35:00,64.6,6.7,30.51,WNW,285,6.0,8.0,10,0.00,,,0.00,Wunderground v.1.15,2013-04-20 00:35:00,
2013-04-19 17:40:00,64.0,6.2,30.51,WNW,285,5.0,7.0,10,0.00,,,0.00,Wunderground v.1.15,2013-04-20 00:40:00,
2013-04-19 17:50:00,63.4,7.9,30.51,NW,305,6.0,6.0,11,0.00,,,0.00,Wunderground v.1.15,2013-04-20 00:50:00,
2013-04-19 17:55:00,63.5,8.0,30.50,West,276,5.0,6.0,11,0.00,,,0.00,Wunderground v.1.15,2013-04-20 00:55:00,
2013-04-19 18:05:00,62.9,7.5,30.50,WNW,302,6.0,9.0,11,0.00,,,0.00,Wunderground v.1.15,2013-04-20 01:05:00,
2013-04-19 18:10:00,62.8,9.4,30.50,NW,323,6.0,6.0,12,0.00,,,0.00,Wunderground v.1.15,2013-04-20 01:10:00,
2013-04-19 18:20:00,63.2,9.7,30.49,WNW,302,5.0,5.0,12,0.00,,,0.00,Wunderground v.1.15,2013-04-20 01:20:00,
2013-04-19 18:25:00,63.7,8.1,30.49,West,266,5.0,5.0,11,0.00,,,0.00,Wunderground v.1.15,2013-04-20 01:25:00,
2013-04-19 18:35:00,63.4,9.8,30.49,West,274,4.0,5.0,12,0.00,,,0.00,Wunderground v.1.15,2013-04-20 01:35:00,
2013-04-19 18:40:00,63.3,9.7,30.49,WNW,295,4.0,4.0,12,0.00,,,0.00,Wunderground v.1.15,2013-04-20 01:40:00,
2013-04-19 18:50:00,62.6,9.2,30.49,NW,321,3.0,5.0,12,0.00,,,0.00,Wunderground v.1.15,2013-04-20 01:50:00,
2013-04-19 18:55:00,61.8,10.4,30.48,NW,319,3.0,5.0,13,0.00,,,0.00,Wunderground v.1.15,2013-04-20 01:55:00,
2013-04-19 19:05:00,60.2,10.7,30.48,WNW,298,1.0,2.0,14,0.00,,,0.00,Wunderground v.1.15,2013-04-20 02:05:00,
2013-04-19 19:10:00,59.2,9.9,30.49,NW,318,2.0,2.0,14,0.00,,,0.00,Wunderground v.1.15,2013-04-20 02:10:00,
2013-04-19 19:20:00,57.5,10.1,30.49,NW,322,1.0,2.0,15,0.00,,,0.00,Wunderground v.1.15,2013-04-20 02:20:00,
2013-04-19 19:25:00,56.6,10.9,30.49,NW,321,1.0,2.0,16,0.00,,,0.00,Wunderground v.1.15,2013-04-20 02:25:00,
2013-04-19 19:35:00,55.1,11.0,30.50,NW,311,0.0,2.0,17,0.00,,,0.00,Wunderground v.1.15,2013-04-20 02:35:00,
2013-04-19 19:40:00,54.6,10.6,30.50,NW,322,1.0,2.0,17,0.00,,,0.00,Wunderground v.1.15,2013-04-20 02:40:00,
2013-04-19 19:50:00,54.3,10.3,30.50,NW,305,2.0,3.0,17,0.00,,,0.00,Wunderground v.1.15,2013-04-20 02:50:00,
2013-04-19 19:55:00,54.6,10.6,30.50,NNW,347,2.0,3.0,17,0.00,,,0.00,Wunderground v.1.15,2013-04-20 02:55:00,
2013-04-19 20:05:00,53.8,11.2,30.51,WNW,293,1.0,2.0,18,0.00,,,0.00,Wunderground v.1.15,2013-04-20 03:05:00,
2013-04-19 20:10:00,53.4,10.9,30.51,NNW,344,1.0,1.0,18,0.00,,,0.00,Wunderground v.1.15,2013-04-20 03:10:00,
2013-04-19 20:20:00,53.1,10.6,30.51,North,355,1.0,1.0,18,0.00,,,0.00,Wunderground v.1.15,2013-04-20 03:20:00,
2013-04-19 20:25:00,52.9,10.5,30.51,North,352,1.0,1.0,18,0.00,,,0.00,Wunderground v.1.15,2013-04-20 03:25:00,
2013-04-19 20:35:00,52.6,10.2,30.51,NW,321,1.0,2.0,18,0.00,,,0.00,Wunderground v.1.15,2013-04-20 03:35:00,
2013-04-19 20:40:00,52.1,9.8,30.51,NW,308,1.0,1.0,18,0.00,,,0.00,Wunderground v.1.15,2013-04-20 03:40:00,
2013-04-19 20:50:00,51.6,10.6,30.51,WNW,302,1.0,2.0,19,0.00,,,0.00,Wunderground v.1.15,2013-04-20 03:50:00,
2013-04-19 20:55:00,51.4,10.4,30.51,NW,320,1.0,2.0,19,0.00,,,0.00,Wunderground v.1.15,2013-04-20 03:55:00,
2013-04-19 21:05:00,50.4,9.6,30.51,NW,319,1.0,1.0,19,0.00,,,0.00,Wunderground v.1.15,2013-04-20 04:05:00,
2013-04-19 21:10:00,49.8,10.3,30.52,North,354,0.0,0.0,20,0.00,,,0.00,Wunderground v.1.15,2013-04-20 04:10:00,
2013-04-19 21:15:00,49.5,10.0,30.52,WNW,295,0.0,0.0,20,0.00,,,0.00,Wunderground v.1.15,2013-04-20 04:15:00,
2013-04-19 21:20:00,49.3,9.9,30.52,NNE,31,0.0,0.0,20,0.00,,,0.00,Wunderground v.1.15,2013-04-20 04:20:00,
2013-04-19 21:25:00,49.5,10.0,30.52,NE,56,0.0,0.0,20,0.00,,,0.00,Wunderground v.1.15,2013-04-20 04:25:00,
2013-04-19 21:35:00,49.5,11.1,30.52,East,81,0.0,0.0,21,0.00,,,0.00,Wunderground v.1.15,2013-04-20 04:35:00,
2013-04-19 21:40:00,49.1,10.8,30.52,SE,131,0.0,0.0,21,0.00,,,0.00,Wunderground v.1.15,2013-04-20 04:40:00,
2013-04-19 21:50:00,46.3,9.5,30.51,ESE,108,0.0,2.0,22,0.00,,,0.00,Wunderground v.1.15,2013-04-20 04:50:00,
2013-04-19 21:55:00,47.3,10.3,30.52,NE,56,1.0,6.0,22,0.00,,,0.00,Wunderground v.1.15,2013-04-20 04:55:00,
2013-04-19 22:05:00,49.1,10.8,30.52,WNW,302,1.0,2.0,21,0.00,,,0.00,Wunderground v.1.15,2013-04-20 05:05:00,
2013-04-19 22:10:00,49.5,11.1,30.51,NW,324,0.0,0.0,21,0.00,,,0.00,Wunderground v.1.15,2013-04-20 05:10:00,
2013-04-19 22:20:00,49.4,11.0,30.51,NNE,27,0.0,0.0,21,0.00,,,0.00,Wunderground v.1.15,2013-04-20 05:20:00,
2013-04-19 22:25:00,49.2,10.9,30.51,NNE,29,0.0,1.0,21,0.00,,,0.00,Wunderground v.1.15,2013-04-20 05:25:00,
2013-04-19 22:35:00,48.6,10.4,30.50,East,86,1.0,1.0,21,0.00,,,0.00,Wunderground v.1.15,2013-04-20 05:35:00,
2013-04-19 22:40:00,47.8,10.7,30.50,East,86,0.0,0.0,22,0.00,,,0.00,Wunderground v.1.15,2013-04-20 05:40:00,
2013-04-19 22:50:00,46.6,10.7,30.50,East,86,0.0,0.0,23,0.00,,,0.00,Wunderground v.1.15,2013-04-20 05:50:00,
2013-04-19 22:55:00,46.6,10.7,30.50,East,91,0.0,1.0,23,0.00,,,0.00,Wunderground v.1.15,2013-04-20 05:55:00,
2013-04-19 23:05:00,47.3,11.3,30.50,East,91,0.0,1.0,23,0.00,,,0.00,Wunderground v.1.15,2013-04-20 06:05:00,
2013-04-19 23:10:00,46.8,9.9,30.50,East,92,0.0,0.0,22,0.00,,,0.00,Wunderground v.1.15,2013-04-20 06:10:00,
2013-04-19 23:20:00,47.5,10.5,30.50,East,91,0.0,0.0,22,0.00,,,0.00,Wunderground v.1.15,2013-04-20 06:20:00,
2013-04-19 23:25:00,47.2,10.2,30.50,East,91,0.0,0.0,22,0.00,,,0.00,Wunderground v.1.15,2013-04-20 06:25:00,
2013-04-19 23:35:00,45.0,10.3,30.50,East,92,0.0,0.0,24,0.00,,,0.00,Wunderground v.1.15,2013-04-20 06:35:00,
2013-04-19 23:40:00,45.0,11.2,30.50,ESE,110,0.0,1.0,25,0.00,,,0.00,Wunderground v.1.15,2013-04-20 06:40:00,
2013-04-19 23:50:00,46.2,10.4,30.50,East,94,2.0,2.0,23,0.00,,,0.00,Wunderground v.1.15,2013-04-20 06:50:00,
2013-04-19 23:55:00,46.2,11.3,30.50,East,96,1.0,2.0,24,0.00,,,0.00,Wunderground v.1.15,2013-04-20 06:55:00,